Regional Weather Roundup
Issued by NWS

Home | Current Version | Previous Version | Graphics & Text | Print | Product List | Glossary On
Versions: 1 2 3 4 5 6 7 8 9 10 11 12 13 14 15 16 17 18 19 20 21 22 23 24 25 26 27 28 29 30 31 32 33 34 35 36 37 38 39 40 41 42 43 44 45 46 47 48 49 50
000
ASUS43 KDMX 151307
RWRIA

WEATHER ROUNDUP FOR IOWA
NATIONAL WEATHER SERVICE DES MOINES IA
800 AM CDT MON SEP 15 2014

NOTE: "FAIR" INDICATES FEW OR NO CLOUDS BELOW 12,000 FEET WITH NO
SIGNIFICANT WEATHER AND/OR OBSTRUCTIONS TO VISIBILITY.

* - THESE STATIONS ARE NOT NWS STATIONS...THUS NOT UNDER NWS
QUALITY CONTROL.  THEY ALSO DO NOT REPORT WEATHER SUCH
AS PRECIPITATION OR FOG.

IAZ001>003-012>014-020>022-031>034-043>046-151400-
   NORTHWEST IOWA

CITY           SKY/WX    TMP DP  RH WIND       PRES   REMARKS
CARROLL *      CLOUDY    52  48  87 N12       30.15R
CHEROKEE *     CLOUDY    48  48 100 N8        30.21R
DENISON *      CLOUDY    52  50  93 N12G20    30.14R
LE MARS *      CLOUDY    50  48  93 NE8       30.22R
ORANGE CITY *  CLOUDY    50  46  87 N5        30.21S
SHELDON *      RAIN      48  48 100 N8        30.20S
SIOUX CITY     CLOUDY    52  47  83 NE14      30.21R
SPENCER        LGT RAIN  50  48  93 N6        30.21R
STORM LAKE *   PTSUNNY   48  48 100 N16G23    30.19R FOG
$$

IAZ055>058-069>071-079>083-090>094-151400-
   SOUTHWEST IOWA

CITY           SKY/WX    TMP DP  RH WIND       PRES   REMARKS
ATLANTIC *     MOSUNNY   59  57  94 N5        30.08F
AUDUBON *      MOSUNNY   57  54  88 N8        30.12R
CLARINDA *     DRIZZLE   61  59  94 N6        30.09S
COUNCIL BLFS * CLOUDY    59  59 100 NW8       30.11R
CRESTON *      CLOUDY    59  59 100 E8        30.06S
HARLAN  *      CLOUDY    55  55 100 N8        30.14R
LAMONI         CLOUDY    59  56  89 N5        30.08R
SHENANDOAH *   CLOUDY    61  59  94 N5        30.10R
$$

IAZ047>049-059>061-072>074-084-151400-
   CENTRAL IOWA

CITY           SKY/WX    TMP DP  RH WIND       PRES   REMARKS
AMES           PTSUNNY   54  52  93 N7        30.10R
ANKENY *       CLOUDY    57  57 100 CALM      30.09R
CHARITON *     CLOUDY    59  57  94 S3        30.08R
DES MOINES     LGT RAIN  59  56  89 CALM      30.09R
GRINNELL*      CLOUDY    55  54  94 SE3       30.09S
KNOXVILLE *    CLOUDY    57  55  94 S3        30.08R
MARSHALLTOWN   MOSUNNY   52  50  93 NE7       30.08S
PELLA *        CLOUDY    57  55  94 CALM      30.10R
PERRY *        PTSUNNY   55  54  94 NW6       30.11R
$$

IAZ004>006-015-016-023>025-035-036-151400-
   NORTH CENTRAL IOWA

CITY           SKY/WX    TMP DP  RH WIND       PRES   REMARKS
ALGONA *       DRIZZLE   50  48  93 N7G14     30.20R
CLARION *        N/A     52  48  87 N12G18    30.16R
ESTHERVILLE    LGT RAIN  48  48 100 N8        30.21R
FORT DODGE *   CLOUDY    52  46  82 N12G17    30.17R
MASON CITY     HVY RAIN  49  48  97 N9        30.18R FOG
FOREST CITY *  RAIN      50  50 100 N8        30.17R
IOWA FALLS *   CLOUDY    52  46  82 N8        30.12S
$$

IAZ007>011-017>019-026>030-037>042-050>054-066-151400-
   NORTHEAST IOWA

CITY           SKY/WX    TMP DP  RH WIND       PRES   REMARKS
CEDAR RAPIDS   CLOUDY    55  55 100 SE3       30.08F
CHARLES CITY * RAIN      50  48  93 NE9G16    30.14S
CLINTON *      CLOUDY    54  52  94 E5        30.13F
DECORAH *      CLOUDY    50  48  93 N7        30.13F
DUBUQUE        MOSUNNY   54  49  83 CALM      30.12F
MONTICELLO *   PTSUNNY   52  50  93 CALM      30.10F
OELWEIN *      PTSUNNY   52  50  93 NE9       30.11F
WATERLOO       PTSUNNY   52  49  89 NE7       30.10F
$$

IAZ064-065-067-068-078-151400-
   EAST CENTRAL IOWA

CITY           SKY/WX    TMP DP  RH WIND       PRES   REMARKS
DAVENPORT      CLOUDY    55  51  86 SE3       30.12F
IOWA CITY      CLOUDY    56  54  93 SE5       30.10S
MT. PLEASANT * LGT RAIN  55  54  94 CALM      30.11R
MUSCATINE *    CLOUDY    55  54  94 NE6       30.10F
QUAD CITIES    CLOUDY    55  53  93 CALM      30.12F
$$

IAZ062-063-075>077-085>089-095>099-151400-
   SOUTHEAST IOWA

CITY           SKY/WX    TMP DP  RH WIND       PRES   REMARKS
BURLINGTON     CLOUDY    56  56 100 E5        30.06F
FAIRFIELD *    CLOUDY    57  55  94 CALM      30.08F
FORT MADISON * CLOUDY    57  54  88 SE8       30.07F
KEOKUK *       CLOUDY    57  54  88 E5        30.07F
OSKALOOSA *    RAIN      55  55 100 CALM      30.08R
CENTERVILLE *  HVY RAIN  55  55 100 E3        30.09R
OTTUMWA        LGT RAIN  57  56  96 E5        30.06F FOG
WASHINGTON *   LGT RAIN  55  55 100 NE6       30.08F
$$

ABBREVIATIONS USED IN REMARKS
   TC - TEMPERATURES IN CELSIUS
  WCI - WIND CHILL INDEX
   HX - HEAT INDEX
  VSB - VISIBILITY
$$




USA.gov is the U.S. government's official web portal to all federal, state and local government web resources and services.